Location: Stockholm
(59.3330°N, 18.0500°E)
Time: 14:05:58
(UTC+01:00)

Envisat - Pass Details

Date: 01 December 2022
Orbit: 763 x 765 km, 98.2° (Epoch: 29 January)

Event Time Altitude Azimuth Distance (km) Brightness Sun altitude
Rises 16:15:35 0° 206° (SSW) 3,226 7.2 -9.0°
Reaches altitude 10° 16:18:23 10° 222° (SW) 2,305 6.8 -9.3°
Maximum altitude 16:22:18 22° 273° (W) 1,628 5.6 -9.7°
Drops below altitude 10° 16:26:15 10° 323° (NW) 2,318 5.6 -10.2°
Sets 16:29:05 0° 339° (NNW) 3,250 6.2 -10.5°
